Regional Weather Roundup
Issued by NWS

Home | Current Version | Previous Version | Text Only | Print | Product List | Glossary On
Versions: 1 2 3 4 5 6 7 8 9 10 11 12 13 14 15 16 17 18 19 20 21 22 23 24 25 26 27 28 29 30 31 32 33 34 35 36 37 38 39 40 41 42 43 44 45 46 47 48 49 50
000
ASUS42 KFFC 262003
RWRGA
WEATHER ROUNDUP FOR GEORGIA
NATIONAL WEATHER SERVICE PEACHTREE CITY GA
300 PM EST WED NOV 26 2014

NOTE: "FAIR" INDICATES FEW OR NO CLOUDS BELOW 12,000 FEET WITH NO
SIGNIFICANT WEATHER AND/OR OBSTRUCTIONS TO VISIBILITY.

* = USE WITH CAUTION. THE STATIONS MARKED WITH AN ASTERISK MAY NOT
REPORT WEATHER SUCH AS PRECIPITATION, FOG, OR THUNDER AND ARE NOT
QUALITY CONTROLLED BY NWS.

THE REMARK "TC" DENOTES TEMPERATURE READING IN DEGREES CELSIUS.

GAZ001>058-262100-
NORTH GEORGIA

CITY           SKY/WX    TMP DP  RH WIND       PRES   REMARKS
ATLANTA        MOSUNNY   56  20  24 W15G21    30.07S
ATHENS         SUNNY     57  22  25 VRB7G18   30.03S
CHAMBLEE       SUNNY     54  20  26 W14G20    30.06S
PEACHTREE CITY SUNNY     57  19  22 NW9       30.09S
ROME           SUNNY     56  23  27 NW13      30.06F
WEST ATLANTA   SUNNY     56  21  25 W9        30.08S
GAINESVILLE    SUNNY     54  18  24 W15G24    30.03S
CARTERSVILLE   SUNNY     55  24  30 VRB5      30.08S


CITY           SKY/WX    TMP DP  RH WIND       PRES   REMARKS
DALTON*        SUNNY     52  25  35 W6        30.06F
LAWRENCEVILLE* SUNNY     55  19  24 W9G21     30.04S
MARIETTA       MOSUNNY   55  21  26 W13       30.06F
KENNESAW*      SUNNY     54  21  28 W12G18    30.08F
$$

GAZ059>098-102>109-262100-
CENTRAL GEORGIA

CITY           SKY/WX    TMP DP  RH WIND       PRES   REMARKS
AUGUSTA-BUSH   MOSUNNY   60  40  47 NW10      30.02S
AUGUSTA-DANIEL MOSUNNY   59  39  47 VRB6      30.03S
COLUMBUS       SUNNY     60  22  23 NW14      30.11S
MACON          SUNNY     59  24  26 W12       30.09R
ROBINS AFB     SUNNY     60  25  26 NW10      30.09R


CITY           SKY/WX    TMP DP  RH WIND       PRES   REMARKS
LAGRANGE*      SUNNY     62  29  28 NW15G25   30.10S
SYLVANIA*      MOSUNNY   59  46  62 NW8       30.06R
MILLEDGEVILLE* SUNNY     59  32  36 W7        30.06S
$$

GAZ099>101-110>166-262100-
SOUTH GEORGIA

CITY           SKY/WX    TMP DP  RH WIND       PRES   REMARKS
SAVANNAH       MOSUNNY   61  42  49 W15       30.05S
VALDOSTA       SUNNY     60  33  36 VRB7      30.13S
ALMA           SUNNY     60  33  36 NW16G22   30.09R
ST SIMONS      SUNNY     61  44  53 W9G16     30.08R
FT STEWART     SUNNY     61  43  51 W15       30.06R
ALBANY         SUNNY     61  26  26 NW10      30.15S
HUNTER AFB     SUNNY     61  45  56 W14       30.03S
MOODY AFB      SUNNY     60  31  32 W14       30.12S
BRUNSWICK      SUNNY     63  43  48 W13       30.09R


CITY           SKY/WX    TMP DP  RH WIND       PRES   REMARKS
BAINBRIDGE*    SUNNY     63  34  34 NW9       30.16F
MOULTRIE*      SUNNY     57  32  38 W6        30.14F
VIDALIA*       SUNNY     61  36  39 W12       30.08R
WAYCROSS*      SUNNY     64  39  39 NW10      30.10S
DOUGLAS*       SUNNY     61  30  31 NW13G20   30.12S
$$


USA.gov is the U.S. government's official web portal to all federal, state and local government web resources and services.